GEFSSE_con_probscp_282.txt.gz
Probability
1 1 1 0 0 0 0 0 0 0 0 0 0 0 0 0 0 1 1 1 0 0 0 0 0 0 0 0 0 0 0 0 0 0 0 0 0 0 0 0 0 0 0
0 0 0 0 0 0 0 0 0 0 0 0 0 0 0 0 0 0 0 0 0 0 0 0 0 0 0 0 0 0 0 0 0 0 0 0 0 0 0 0 0 0 0
0 0 0 0 0 0 0 0 0 0 0 0 0 0 0 0 0 0 0 0 0 0 0 0 0 0 0 0 0 0 0 0 0 0 0 0 0 0 0 0 0 0 0
0 1 1 0 0 0 0 0 0 0 0 0 0 0 1 1 1 0 0 0 0 0 0 0 0 0 0 0 0 1 1 0 0 0 0 0 0 0 0 0 0 0 0
1 2 2 1 0 0 0 0 0 0 0 0 1 1 2 2 1 0 0 0 0 0 0 0 0 0 0 0 0 1 2 1 0 0 0 0 0 0 0 0 0 0 0
1 2 3 2 1 0 0 0 0 1 1 1 2 3 3 3 1 0 0 0 0 0 0 0 0 0 0 0 0 2 2 1 0 0 0 0 0 0 0 0 0 0 0
2 3 3 3 1 1 0 0 1 2 2 3 3 3 3 3 1 1 1 0 0 0 0 0 0 0 0 0 1 2 2 2 0 0 0 0 0 0 0 0 0 0 0
3 3 3 3 3 2 1 1 2 3 3 3 4 4 4 3 2 1 1 0 0 0 0 0 0 0 0 0 1 1 2 1 0 0 0 0 0 0 0 0 0 0 0
3 3 3 3 3 3 2 2 3 3 4 4 5 5 5 4 3 2 1 1 1 0 0 0 0 0 0 0 0 0 1 1 0 0 0 0 0 0 0 0 0 0 0
3 3 3 3 3 3 3 3 2 3 4 5 6 6 4 3 3 3 3 2 2 1 0 0 0 0 0 0 0 0 0 0 0 0 0 0 0 0 0 0 0 0 0
3 3 3 3 3 3 3 3 2 2 3 5 6 6 4 3 3 3 3 3 3 2 0 0 0 0 0 0 0 0 0 0 0 0 0 0 0 0 0 0 0 0 0
3 3 3 3 3 3 4 4 3 2 3 5 6 6 5 4 3 2 2 3 3 2 1 1 1 0 0 0 1 0 0 0 0 0 0 1 1 0 0 0 0 0 0
3 3 3 3 3 3 3 4 4 3 4 5 6 6 4 3 3 3 3 3 3 3 2 2 2 1 1 1 1 0 0 0 0 0 1 2 2 1 0 0 0 0 0
3 3 3 3 3 3 3 3 3 3 3 4 5 5 4 3 3 3 3 3 3 3 3 3 3 3 2 2 1 1 1 0 0 1 1 3 3 2 1 0 0 0 1
3 3 3 3 3 3 3 3 2 2 2 1 2 4 4 3 3 3 3 3 3 3 3 3 4 4 3 3 3 2 2 1 1 2 3 3 3 3 1 0 0 1 2
3 3 3 3 3 3 3 3 2 1 1 0 0 2 3 3 3 3 3 3 3 3 3 4 5 5 4 3 3 3 3 3 3 3 3 3 3 2 2 1 1 3 4
3 3 4 3 3 3 3 3 2 1 1 0 0 1 2 3 3 3 3 3 3 3 4 6 7 6 5 4 3 3 3 3 3 3 3 2 1 1 2 2 2 3 3
4 4 5 5 4 4 4 4 3 3 2 1 1 1 3 4 4 4 4 4 3 3 4 6 7 6 4 3 3 3 3 3 3 3 3 1 0 0 1 3 3 2 2
4 5 5 6 6 5 5 5 3 2 2 2 2 3 4 5 6 5 5 5 4 3 4 5 5 4 3 3 3 3 3 3 3 3 2 1 0 0 1 2 2 1 1
3 4 6 7 7 6 6 5 4 2 1 1 1 3 5 6 6 6 6 5 4 3 3 4 4 3 3 3 3 3 3 3 3 2 1 0 0 0 0 1 1 0 0
2 4 7 8 8 7 6 6 5 4 2 0 1 3 4 5 6 6 6 6 4 4 4 5 5 4 4 3 3 3 3 3 2 1 0 0 0 0 0 1 1 1 0
2 5 8 10 10 8 6 5 5 5 3 1 2 3 3 4 5 6 6 6 5 4 5 7 7 7 5 4 3 3 3 2 1 1 0 0 0 0 0 1 2 1 1
2 5 8 10 10 9 8 6 5 6 5 4 4 3 3 3 4 6 6 6 5 6 7 9 10 9 8 6 5 4 2 1 0 0 0 0 0 0 0 0 1 1 0
4 4 6 8 10 10 10 9 8 7 6 6 5 5 4 3 4 6 7 8 8 8 9 10 11 11 10 9 7 4 3 2 1 1 0 0 0 0 0 0 0 0 1
5 4 5 8 9 10 11 12 12 10 7 7 8 9 7 4 4 5 7 9 9 9 10 11 12 13 12 10 8 5 4 4 3 2 1 0 0 0 0 0 0 0 1
6 5 5 7 9 9 10 12 14 11 8 8 11 12 9 6 4 4 6 8 8 9 10 12 13 13 12 10 7 6 5 5 5 3 2 1 1 1 0 0 0 0 1

GEFSSE_con_probscp_288.txt.gz
Probability
0 0 0 0 0 0 1 2 3 3 3 3 2 1 0 0 0 0 1 1 1 1 0 1 1 1 2 5 4 3 3 2 2 1 0 1 2 4 2 1 0 0 0
0 0 0 0 0 0 1 2 3 3 3 2 1 0 0 0 0 1 2 1 1 1 0 0 1 2 3 5 6 4 3 1 1 0 0 0 1 2 1 0 0 0 0
0 0 0 0 0 0 0 1 2 2 2 1 0 0 0 0 0 1 2 1 0 0 0 0 1 1 2 4 6 5 3 1 0 0 0 0 0 0 0 0 0 0 0
1 1 1 1 0 0 0 0 1 1 1 0 0 1 0 0 0 1 1 0 0 0 0 0 0 0 1 2 3 3 3 2 1 0 0 0 0 0 0 0 0 0 0
2 3 3 2 1 1 1 1 0 0 0 0 0 0 0 0 0 0 0 0 0 0 0 0 0 0 0 1 1 2 2 1 0 0 0 0 0 0 0 0 0 0 0
2 3 3 3 3 3 2 2 1 0 0 0 0 0 0 0 0 0 0 0 0 0 0 0 0 0 0 0 1 1 1 0 0 0 0 0 0 0 0 0 0 0 0
1 2 4 5 5 4 3 3 2 1 0 0 0 1 1 1 1 1 1 0 0 0 0 0 0 0 0 0 0 0 0 0 0 0 0 0 0 0 0 0 0 0 0
1 2 5 6 6 5 4 3 3 2 1 1 1 2 2 2 2 1 1 0 0 0 0 0 0 0 0 0 0 0 0 0 0 0 0 0 0 1 1 0 0 0 0
1 2 4 7 7 6 4 3 3 3 3 2 3 3 3 3 3 3 2 1 1 1 1 0 0 0 0 0 0 0 0 0 0 0 0 0 0 1 2 1 0 0 0
2 2 3 5 6 5 5 4 3 3 3 3 3 3 3 3 3 3 3 3 2 2 2 1 1 1 1 1 1 1 1 0 0 0 0 0 0 1 3 3 2 0 0
2 2 3 4 4 4 4 3 3 3 3 3 3 3 3 3 3 3 4 4 4 3 3 3 3 3 3 2 2 2 1 0 0 0 0 1 1 2 3 4 3 1 0
2 3 3 2 2 3 4 3 2 2 3 3 3 3 3 3 3 3 4 6 6 4 3 4 5 5 4 3 3 3 2 1 0 0 1 2 3 3 3 2 2 2 1
3 3 3 3 2 3 4 4 2 1 2 3 3 3 3 3 3 3 4 5 6 5 5 4 5 5 4 3 3 4 3 1 0 1 2 3 3 3 3 3 3 3 3
3 3 5 5 4 5 5 4 2 1 1 1 3 4 3 3 3 3 4 4 5 6 6 5 4 4 4 4 3 3 2 1 0 1 2 3 3 3 4 5 6 6 5
3 4 7 8 8 8 8 6 3 2 2 2 3 4 4 4 3 4 5 5 5 6 6 5 4 3 4 3 3 3 3 1 0 1 3 3 4 4 6 7 8 7 6
5 7 11 13 13 12 10 8 6 5 5 4 4 5 5 6 5 5 5 5 5 5 5 4 3 3 3 3 3 3 3 2 2 2 3 4 5 6 7 9 8 6 5
8 10 13 15 17 15 11 9 9 8 6 6 6 7 8 9 8 6 5 4 4 4 4 4 4 4 4 4 4 3 4 4 4 4 4 5 6 7 8 9 8 6 5
12 13 13 13 15 15 12 10 10 9 7 6 7 9 12 12 10 9 6 4 3 3 4 5 6 6 6 6 5 4 4 6 6 6 6 6 6 6 6 6 7 6 5
17 18 16 14 14 14 12 11 10 10 9 8 8 11 13 14 13 11 9 7 6 5 6 6 6 6 6 6 5 4 4 6 7 6 6 6 6 5 3 3 4 5 4
21 23 23 20 18 15 13 12 12 12 11 11 10 12 15 16 15 13 12 11 9 8 7 7 6 6 6 6 5 3 3 5 6 6 6 6 6 5 3 3 3 2 2
24 27 26 24 22 19 16 15 14 13 12 12 12 13 16 17 16 15 14 13 11 9 7 7 7 7 7 6 5 4 4 5 6 6 7 6 5 4 5 4 3 1 1
27 29 28 25 25 24 20 18 16 13 11 10 12 14 16 17 17 16 14 13 12 11 10 10 10 10 9 7 7 8 7 6 6 6 7 7 6 5 6 5 4 2 1
28 30 29 28 28 26 23 20 18 16 13 12 14 16 16 17 17 16 14 14 15 16 17 15 14 13 11 9 10 10 10 9 8 7 7 7 7 7 6 6 5 4 2
25 27 30 31 29 26 24 21 19 19 18 17 17 17 16 16 17 16 15 16 19 20 20 18 16 15 14 12 11 11 12 12 10 8 7 7 8 8 8 7 7 5 4
19 23 29 31 29 26 23 21 20 20 20 19 19 18 17 17 17 17 18 19 20 21 20 18 17 17 17 14 11 11 12 13 13 11 8 7 9 10 10 10 9 8 7
17 20 26 30 30 26 23 21 20 19 19 19 18 19 18 17 17 18 20 21 21 20 19 18 18 18 18 15 12 11 11 13 14 12 9 8 10 11 12 12 11 10 10

GEFSSE_con_probscp_294.txt.gz
Probability
0 0 0 0 0 0 1 2 2 1 1 1 1 0 0 1 2 3 2 1 0 0 1 2 1 0 0 0 0 0 1 2 3 2 2 1 3 5 5 5 4 3 3
1 1 1 0 0 0 0 1 1 0 0 0 0 0 0 1 2 2 1 1 0 0 1 1 1 0 0 0 0 0 0 1 2 1 1 1 3 4 4 4 3 3 3
2 2 1 0 0 0 0 0 0 0 0 0 0 0 1 2 2 1 1 0 0 0 0 0 0 0 0 0 0 0 0 0 0 0 0 1 2 4 3 2 2 3 2
3 3 2 1 0 0 0 0 0 0 0 0 0 0 1 2 2 1 0 0 0 0 0 0 0 0 1 1 0 0 0 0 0 0 0 1 2 3 2 1 1 1 1
3 3 3 3 1 0 0 0 0 0 0 0 0 0 0 1 1 1 0 0 0 0 0 0 0 1 2 2 1 0 0 0 0 0 0 0 1 1 1 0 0 0 0
3 3 3 3 1 0 0 1 1 0 0 0 0 0 0 0 0 0 0 0 0 0 0 0 0 1 2 2 1 0 0 0 0 0 0 0 0 0 0 0 0 0 0
3 3 3 3 1 1 1 1 1 0 0 0 1 1 1 1 1 1 1 1 1 0 0 0 0 1 2 2 1 0 0 0 0 0 0 0 0 0 0 0 0 0 0
3 3 3 3 3 2 1 1 1 1 1 1 2 2 2 2 2 3 3 3 2 1 0 0 0 0 1 1 1 1 0 0 0 0 0 0 0 0 0 0 0 0 0
3 3 3 3 3 2 1 2 3 3 2 3 3 3 3 3 4 4 4 4 3 1 1 1 0 0 0 0 1 1 1 0 0 0 0 0 0 0 0 0 0 0 0
1 2 3 3 2 1 1 4 4 4 3 3 3 3 3 4 4 4 4 3 3 3 2 2 1 0 0 0 1 1 1 1 0 0 0 0 0 0 0 0 0 0 0
0 1 2 2 1 0 1 2 3 3 3 3 3 3 3 3 4 3 3 3 3 3 3 3 2 1 0 0 1 2 2 1 0 0 0 0 0 0 0 0 0 0 0
0 0 1 1 0 0 0 1 1 2 2 3 3 3 3 3 3 3 3 3 3 3 3 3 3 2 1 0 1 1 1 0 0 0 0 0 1 1 1 1 0 0 1
0 1 2 2 1 0 0 0 0 1 1 1 2 2 2 1 1 3 3 3 3 3 3 3 3 3 2 1 1 1 0 0 0 0 0 1 2 2 2 2 1 1 1
1 1 2 2 1 0 0 0 0 0 0 0 1 1 1 1 1 2 3 3 3 3 3 3 3 3 3 3 2 1 0 0 0 0 0 1 2 3 3 3 2 1 1
4 2 2 2 1 0 0 0 0 0 0 0 0 0 1 1 1 1 3 3 3 3 3 3 3 3 3 3 3 1 1 0 0 0 0 1 2 3 3 3 3 2 1
4 2 1 1 1 0 0 0 0 0 1 1 1 0 1 1 1 1 3 3 3 3 3 3 3 3 3 3 3 2 1 0 0 0 0 1 2 3 3 3 3 3 3
2 1 0 1 1 1 1 1 1 1 1 2 1 1 1 2 2 3 3 3 3 3 3 3 3 3 3 3 3 2 1 0 0 0 1 1 2 2 2 3 3 3 3
1 1 1 1 2 3 3 2 1 1 1 1 1 1 2 3 3 3 3 3 3 3 3 3 3 3 3 3 3 2 1 1 2 2 2 2 3 3 3 3 3 3 3
2 2 2 3 5 6 5 2 1 1 0 0 0 1 1 2 3 2 2 2 2 3 3 3 3 3 3 3 3 2 2 2 3 3 3 4 3 3 3 3 3 3 3
8 6 4 5 6 6 5 3 1 1 1 1 0 0 1 2 5 4 2 2 2 3 3 3 3 3 3 3 3 3 2 2 3 3 3 4 4 3 2 1 1 2 2
12 10 8 7 8 7 5 4 2 2 2 2 1 0 1 3 7 7 5 3 2 2 3 3 3 3 3 3 3 3 2 1 2 2 3 4 4 2 1 0 0 1 1
13 12 10 11 13 11 8 6 5 4 3 2 1 0 1 4 7 8 6 5 3 2 2 3 4 4 3 3 3 3 2 1 1 1 2 4 3 1 0 0 0 0 0
12 12 11 12 15 14 11 9 8 5 3 2 1 1 1 3 6 7 7 6 5 3 2 3 5 5 4 3 3 3 3 3 2 1 1 1 1 0 0 0 0 0 0
12 13 12 11 13 13 12 10 9 7 5 4 4 3 3 4 5 7 8 8 7 6 5 5 7 7 6 5 4 3 3 3 3 2 1 0 0 0 0 0 0 0 0
14 15 15 13 13 13 11 9 9 8 7 7 6 5 4 4 6 8 8 8 8 8 8 8 9 9 8 7 5 4 4 3 3 3 2 1 0 0 0 0 0 0 0
15 18 19 17 15 13 11 9 8 8 7 8 8 7 5 4 5 7 8 9 9 9 9 10 10 10 9 7 6 5 5 4 3 3 2 1 0 0 0 0 0 0 0

GEFSSE_con_probscp_300.txt.gz
Probability
0 0 1 2 2 1 0 0 0 0 0 0 0 0 1 2 2 1 0 0 0 0 0 1 1 1 0 0 1 3 6 6 4 4 4 3 4 5 5 4 4 3 3
0 0 1 2 2 1 0 0 0 0 0 0 0 0 1 2 3 2 1 0 0 0 1 1 1 0 0 0 1 3 5 5 4 4 4 3 4 6 6 5 3 2 1
0 0 1 2 1 0 0 0 0 0 0 0 1 1 2 3 3 2 1 0 0 0 1 2 1 0 0 0 1 2 3 3 3 3 3 3 4 6 6 5 3 1 0
0 0 1 1 1 0 0 0 0 0 0 0 0 1 2 3 3 2 1 0 0 0 1 1 1 0 0 0 1 1 1 1 1 1 1 2 3 5 6 4 2 0 0
0 0 0 1 0 0 0 0 0 0 0 0 0 0 1 2 2 1 0 0 0 1 1 1 0 0 0 0 1 0 0 0 0 0 0 1 2 4 5 3 1 0 0
0 0 1 1 1 0 0 0 0 0 0 0 1 1 0 1 1 0 0 0 0 1 2 1 0 0 0 0 0 0 0 0 0 0 0 0 1 2 2 1 0 0 0
0 1 2 2 1 0 0 1 1 1 1 1 2 2 2 1 1 0 0 0 1 2 3 2 0 0 0 0 0 0 0 0 0 0 0 0 0 1 1 0 0 0 0
1 2 2 2 1 0 1 2 2 2 2 3 3 3 4 3 2 1 0 0 1 2 3 2 1 1 1 1 0 0 0 0 0 0 0 0 0 0 0 0 0 0 0
1 1 1 1 0 0 2 3 3 3 3 3 4 4 5 5 3 1 1 1 1 1 2 2 2 2 2 2 1 0 0 0 0 0 0 0 0 0 0 0 0 0 0
0 0 0 0 0 0 1 3 3 3 3 4 4 5 5 5 3 1 1 1 0 0 1 2 2 1 2 2 1 0 0 0 0 0 0 0 0 0 0 0 0 0 0
0 0 0 0 0 0 1 2 2 2 3 3 4 4 4 3 1 0 0 0 0 1 1 1 1 1 1 1 0 0 0 0 0 0 0 0 0 0 0 0 0 0 0
0 0 0 0 0 0 0 1 1 1 1 2 2 2 2 1 0 0 0 0 0 1 2 2 2 1 0 0 0 0 0 0 0 0 0 0 0 0 0 0 0 0 0
0 0 0 0 0 0 0 0 0 0 0 1 1 1 1 0 0 0 0 0 0 1 1 2 3 2 1 1 0 0 0 0 0 0 0 0 0 0 0 0 0 0 1
0 0 0 0 0 0 0 0 0 0 0 0 0 0 0 0 0 0 0 0 0 1 2 3 3 3 3 2 1 1 0 0 0 0 0 0 0 0 0 0 0 0 1
0 0 0 0 0 0 0 0 0 0 0 0 0 0 0 0 0 0 0 0 0 1 3 3 3 3 3 3 3 2 1 0 0 0 0 0 0 0 0 0 1 2 2
0 0 0 0 0 0 0 0 0 0 0 0 0 0 0 0 0 0 0 0 0 2 3 3 3 3 3 3 3 3 2 1 1 1 0 0 0 0 0 1 2 3 3
0 0 0 0 0 0 0 0 0 0 0 0 0 0 0 0 0 0 0 0 0 1 2 2 3 3 3 3 3 3 3 3 2 2 1 1 1 1 1 1 1 1 2
0 0 0 0 0 0 0 0 0 0 0 0 0 0 0 0 0 0 0 0 0 0 1 1 1 2 2 2 2 2 2 2 2 2 2 2 2 2 1 1 0 0 1
0 0 0 0 0 0 0 0 0 0 0 0 0 0 0 0 0 0 0 0 0 0 0 0 0 1 1 1 1 1 1 1 1 1 2 3 3 3 2 1 0 0 1
0 0 0 0 0 0 0 0 0 0 0 0 0 0 0 0 0 0 1 1 1 1 0 0 0 0 0 0 0 0 0 1 1 1 1 1 2 3 3 1 1 0 1
1 0 0 0 0 0 1 1 1 1 0 0 0 0 1 1 1 1 2 3 3 2 1 1 2 1 1 0 0 0 0 1 2 1 0 0 2 3 3 3 2 1 0
3 2 1 1 1 1 2 3 2 2 1 1 0 0 1 2 2 3 4 5 4 4 3 3 4 3 2 2 1 1 1 1 2 1 0 0 1 2 2 3 3 2 1
6 6 5 4 3 3 4 4 4 3 2 1 0 0 1 3 4 3 4 5 6 6 6 6 6 5 5 4 4 3 2 2 2 2 1 0 1 1 1 1 2 2 2
9 9 8 6 4 4 4 5 4 3 2 1 0 0 1 3 4 4 5 6 6 6 7 7 7 6 6 6 5 4 4 4 3 3 2 1 1 0 0 0 1 1 2
9 9 9 7 5 5 6 7 6 4 2 1 1 1 1 3 5 6 7 7 7 6 7 8 8 8 7 7 7 6 6 6 5 5 4 3 3 1 0 0 0 0 1
8 8 8 7 6 6 9 11 8 5 3 2 2 2 2 3 5 6 8 8 7 6 7 9 9 9 9 9 9 9 9 8 8 7 6 5 4 2 1 0 0 1 1

GEFSSE_con_probscp_306.txt.gz
Probability
0 1 2 2 2 3 3 3 3 3 3 2 2 3 3 4 5 5 4 3 3 3 3 3 3 3 3 3 3 4 4 4 5 6 6 6 6 6 6 6 6 6 6
0 1 3 3 3 3 3 3 3 3 3 3 3 4 3 4 5 6 5 4 4 3 3 2 2 2 3 3 3 4 5 6 6 6 6 6 6 6 6 6 7 7 7
0 0 2 3 4 4 4 4 4 4 4 4 5 5 5 5 6 6 6 6 5 4 3 2 1 2 3 3 3 4 5 6 6 6 6 6 6 5 6 6 7 7 7
0 0 1 3 4 4 5 6 6 6 5 5 5 7 7 7 7 7 7 7 5 4 3 3 2 3 3 3 3 3 5 6 6 6 5 5 5 5 6 6 7 7 7
0 0 2 3 4 5 6 6 7 7 7 6 6 7 7 7 7 8 8 7 5 3 3 3 3 3 3 3 3 3 3 4 4 3 3 3 4 6 6 6 6 6 6
1 0 1 3 5 6 6 6 7 7 7 6 6 6 5 6 6 7 8 7 5 3 3 3 3 3 3 3 2 2 2 2 2 1 2 2 4 6 6 6 6 6 6
2 1 2 5 6 6 6 6 6 6 6 6 5 4 4 4 5 6 7 7 5 3 2 2 2 2 2 1 1 1 0 0 0 0 1 2 3 5 6 5 4 4 4
2 1 3 5 6 6 6 6 6 6 5 5 5 5 4 4 5 6 7 7 6 3 2 2 2 2 1 1 1 0 0 0 0 0 0 1 2 4 4 4 3 2 1
1 1 2 3 3 3 5 6 6 6 6 6 6 6 6 6 6 7 8 9 7 5 4 3 3 3 3 2 2 1 1 1 0 0 0 1 2 3 3 3 1 1 0
2 2 1 0 0 1 3 4 4 5 5 6 6 7 7 7 7 7 8 9 9 8 7 5 4 4 4 3 3 2 2 1 0 0 0 1 2 3 3 2 1 0 0
3 2 1 0 0 0 1 2 3 4 4 5 5 5 5 5 4 4 5 6 7 8 7 6 6 5 5 4 3 2 1 1 0 0 0 1 2 3 3 2 1 0 0
2 2 1 0 0 0 0 0 1 2 3 4 4 4 3 3 2 2 3 5 6 7 7 6 6 6 5 4 3 2 1 0 0 0 0 1 1 2 3 2 1 0 0
1 1 0 0 0 0 0 0 0 0 1 2 2 3 2 1 2 3 4 5 6 6 6 6 7 6 5 4 4 4 3 2 1 0 1 2 1 1 2 1 1 0 0
0 0 0 0 0 0 0 0 0 0 0 0 1 2 1 1 1 3 4 5 6 6 6 6 6 6 6 6 6 6 5 5 3 2 3 4 4 2 1 0 0 0 0
1 1 0 0 0 1 1 1 0 0 0 0 0 0 0 0 1 2 4 5 5 6 6 6 6 6 6 6 6 6 6 6 5 5 5 7 8 6 3 1 1 1 1
3 2 1 1 1 2 2 2 1 0 0 0 0 0 0 0 1 3 4 4 4 4 4 4 4 4 4 4 4 4 4 4 5 5 6 7 8 8 5 3 3 2 2
5 4 3 2 2 3 4 3 1 0 0 0 0 0 0 0 1 4 4 4 3 3 3 3 3 3 3 3 3 3 3 3 4 4 5 6 7 7 7 6 5 4 4
7 6 5 5 5 5 5 4 2 1 1 1 1 0 0 0 2 4 5 5 4 3 3 4 4 4 4 4 4 4 4 4 3 3 4 6 6 6 7 7 6 6 6
9 9 7 6 6 6 5 4 3 3 2 3 3 2 1 0 2 5 7 7 6 5 6 6 6 6 6 6 6 6 6 6 5 5 6 6 6 6 6 7 8 7 7
12 10 8 6 6 6 6 5 5 4 4 4 4 4 2 1 3 6 8 8 9 8 9 9 9 8 8 8 8 8 8 8 8 8 8 7 6 6 5 7 9 9 8
13 12 9 6 6 7 7 7 6 5 4 4 4 4 3 3 5 8 9 9 10 10 10 10 10 9 9 10 10 10 9 9 10 10 9 9 7 6 7 8 9 10 10
12 12 10 8 7 7 8 7 7 6 5 4 4 4 4 5 6 7 9 9 9 10 10 10 10 10 10 10 10 10 10 9 9 9 9 9 8 8 9 10 11 12 13
10 10 10 10 9 9 9 9 8 7 6 5 5 6 6 6 6 7 7 9 10 10 11 11 12 11 11 10 10 10 9 8 8 8 9 9 9 9 10 11 12 13 14
8 9 9 10 11 11 11 10 9 9 8 8 8 7 6 6 6 6 6 8 11 13 13 13 13 14 12 10 10 10 10 10 8 8 9 10 10 10 10 11 12 12 12
9 9 10 11 12 12 11 10 10 10 9 10 9 7 6 6 6 5 6 9 13 15 15 14 15 15 13 11 10 11 12 12 10 9 9 10 11 11 11 11 10 11 12
11 11 10 11 13 13 12 11 11 10 10 10 9 7 6 6 6 6 6 10 14 16 16 16 15 14 12 11 11 12 13 12 11 10 10 10 11 13 12 11 10 11 13